TimeEDT,TemperatureF,Dew PointF,Humidity,Sea Level PressureIn,VisibilityMPH,Wind Direction,Wind SpeedMPH,Gust SpeedMPH,PrecipitationIn,Events,Conditions,WindDirDegrees,DateUTC
12:53 AM,64.9,64.0,97,30.19,-9999.0,Calm,Calm,-,N/A,,Unknown,0,2012-10-13 04:53:00
1:53 AM,64.9,62.1,90,30.18,-9999.0,Calm,Calm,-,N/A,,Unknown,0,2012-10-13 05:53:00
2:53 AM,64.0,62.1,93,30.17,-9999.0,Calm,Calm,-,N/A,,Unknown,0,2012-10-13 06:53:00
3:53 AM,62.1,61.0,96,30.16,-9999.0,Calm,Calm,-,N/A,,Unknown,0,2012-10-13 07:53:00
4:53 AM,62.1,60.1,93,30.17,-9999.0,Calm,Calm,-,N/A,,Unknown,0,2012-10-13 08:53:00
5:53 AM,62.1,61.0,96,30.18,-9999.0,Calm,Calm,-,N/A,,Unknown,0,2012-10-13 09:53:00
6:53 AM,61.0,59.0,93,30.20,-9999.0,Calm,Calm,-,N/A,,Unknown,0,2012-10-13 10:53:00
7:53 AM,61.0,60.1,97,30.21,-9999.0,Calm,Calm,-,N/A,,Unknown,0,2012-10-13 11:53:00
8:53 AM,66.9,63.0,87,30.23,-9999.0,Variable,3.5,-,N/A,,Unknown,0,2012-10-13 12:53:00
9:53 AM,73.0,64.0,73,30.24,-9999.0,ENE,6.9,-,N/A,,Unknown,70,2012-10-13 13:53:00
10:53 AM,78.1,64.0,62,30.25,-9999.0,ENE,8.1,-,N/A,,Unknown,70,2012-10-13 14:53:00
11:53 AM,81.0,64.9,58,30.24,-9999.0,Variable,5.8,16.1,N/A,,Unknown,0,2012-10-13 15:53:00
12:53 PM,82.9,64.0,53,30.22,-9999.0,ENE,10.4,19.6,N/A,,Unknown,70,2012-10-13 16:53:00
1:53 PM,84.9,64.0,49,30.19,-9999.0,ENE,9.2,-,N/A,,Unknown,60,2012-10-13 17:53:00
2:53 PM,84.0,64.9,53,30.17,-9999.0,ENE,8.1,-,N/A,,Unknown,60,2012-10-13 18:53:00
3:53 PM,82.0,64.0,54,30.15,-9999.0,ENE,6.9,-,N/A,,Unknown,70,2012-10-13 19:53:00
4:53 PM,82.0,64.0,54,30.14,-9999.0,ENE,8.1,-,N/A,,Unknown,70,2012-10-13 20:53:00
5:53 PM,82.0,64.0,54,30.14,-9999.0,ENE,5.8,-,N/A,,Unknown,70,2012-10-13 21:53:00
6:53 PM,78.1,64.0,62,30.15,-9999.0,ENE,3.5,-,N/A,,Unknown,60,2012-10-13 22:53:00
7:53 PM,73.9,64.9,73,30.16,-9999.0,Calm,Calm,-,0.01,,Unknown,0,2012-10-13 23:53:00
8:53 PM,73.0,64.0,73,30.17,-9999.0,ENE,4.6,-,0.01,,Unknown,60,2012-10-14 00:53:00
9:53 PM,72.0,64.0,76,30.19,-9999.0,ENE,3.5,-,N/A,,Unknown,60,2012-10-14 01:53:00
10:53 PM,69.1,64.0,84,30.19,-9999.0,NNE,3.5,-,N/A,,Unknown,30,2012-10-14 02:53:00
11:53 PM,69.1,64.9,87,30.18,-9999.0,NNE,3.5,-,N/A,,Unknown,30,2012-10-14 03:53:00